Regional Weather Roundup
Issued by NWS Northern Indiana

Home | Current Version | Previous Version | Graphics & Text | Print | Product List | Glossary On
Versions: 1 2 3 4 5 6 7 8 9 10 11 12 13 14 15 16 17 18 19 20 21 22 23 24 25 26 27 28 29 30 31 32 33 34 35 36 37 38 39 40 41 42 43 44 45 46 47 48 49 50
000
ASUS43 KIWX 261100
RWRIWX

KIWX WEATHER ROUNDUP
NATIONAL WEATHER SERVICE NORTHERN INDIANA
700 AM EDT MON JUN 26 2017

NOTE: "FAIR" INDICATES FEW OR NO CLOUDS BELOW 12,000 FEET WITH NO
SIGNIFICANT WEATHER AND/OR OBSTRUCTIONS TO VISIBILITY.

* THESE STATIONS ARE NOT UNDER NWS QUALITY CONTROL. THEY ALSO MAY NOT
  REPORT WEATHER SUCH AS PRECIPITATION OR FOG.

INZ001>027-261200-
NORTHERN INDIANA

CITY           SKY/WX    TMP DP  RH WIND       PRES   REMARKS
GARY*          PTCLDY    52  48  87 W7        30.13R
MICHIGAN CITY* CLEAR     52  50  93 SW6       30.12R
KNOX*          CLEAR     50  45  81 SW3       30.12R
SOUTH BEND     PTCLDY    53  52  96 SW6       30.11R
ELKHART*       CLEAR     54  50  87 CALM      30.09
GOSHEN         CLEAR     54  49  83 W7        30.10R
MONTICELLO*    CLEAR     53  49  86 CALM      30.14R
FORT WAYNE     PTCLDY    56  49  77 W8        30.11S
PERU/GRISSOM   CLEAR     53  52  94 W6        30.13R

$$
INZ028>050-261200-
CENTRAL INDIANA

CITY           SKY/WX    TMP DP  RH WIND       PRES   REMARKS
LAFAYETTE      PTCLDY    50  50 100 W3        30.15R
KOKOMO*        PTCLDY    55  50  83 W7        30.14R
MUNCIE*        CLEAR     56  50  80 W6        30.14R
INDIANAPOLIS   PTCLDY    54  49  83 W5        30.16R

$$
MIZ043>046-050>051-056>058-064>065-071>073-077>080-261200-
SOUTHWEST LOWER MICHIGAN

CITY           SKY/WX    TMP DP  RH WIND       PRES   REMARKS
BATTLE CREEK   CLEAR     54  53  97 W7        30.07R
BENTON HARBOR  PTCLDY    61  48  62 W9        30.08R
COLDWATER*     CLEAR     55  52  88 W6        30.08R
HILLSDALE*     PTCLDY    54  50  87 W6        30.06S
HOLLAND        PTCLDY    59  50  72 VRB7      30.06S
GRAND RAPIDS   PTCLDY    55  53  93 W9        30.04S
KALAMAZOO      CLEAR     56  51  84 W7        30.08R
STURGIS*       CLEAR     56  52  88 NW3       30.08R
THREE RIVERS*  FAIR      56  52  86 W6        30.09R

$$
OHZ001>008-015>018-024>025-261200-
NORTHWEST OHIO

CITY           SKY/WX    TMP DP  RH WIND       PRES   REMARKS
DEFIANCE       CLEAR     56  50  80 CALM      30.09R
FINDLAY        MOCLDY    57  49  74 SW9       30.08R
TOLEDO EXPRESS CLEAR     56  52  86 W9        30.06R
TOLEDO METCALF PTCLDY    59  52  77 W6        30.07R
LIMA           CLOUDY    56  51  84 SW8       30.10R

$$
AND FOR LAKE MICHIGAN COASTAL AND OPEN LAKE BUOY OBSERVATIONS

STATION/POSITION TEMP    WIND        PRES    VSBY  WAVE
                 AIR SEA DIR/SP/G                  HT/PER
                 (F)     (DEG/KT/KT) (MB)    (MI)  (FT/S)
CALUMET HARBOR    56     240/  4/  5 1019.2R
MICHIGAN CITY     58     210/ 10/ 13   N/A
BURNS HARBOR      58     240/  7/ 10 1020.0R
SOUTH LAKE BUOY   60 61  300/ 16/ 17 1017.8          3/ 4
4 MI NW BRIDGMAN  63 68  290/ 16/ 19 1018.9R         4/ 5
MICHIGAN CITY     62 66  280/ 12/ 16   N/A           3/ 4

$$
&&




USA.gov is the U.S. government's official web portal to all federal, state and local government web resources and services.